Location: Starhoo Observatory
(41.8578°N, 70.9669°W)
Time: 03:22:49
(UTC-04:00)

ISS - Visible Passes

Search period start: 30 July 2016 00:00
Search period end: 09 August 2016 00:00
Orbit: 401 x 404 km, 51.6° (Epoch: 30 July)

Date Brightness Start Highest point End Pass type
(mag) Time Alt. Az. Time Alt. Az. Time Alt. Az.
30 Jul -1.6 21:12:19 10° W 21:15:20 34° NNW 21:18:22 10° NE visible
30 Jul -0.2 22:50:27 10° NW 22:52:29 15° N 22:54:32 10° NNE visible
31 Jul 0.0 00:27:27 10° NNW 00:27:59 13° NNW 00:27:59 13° NNW visible
31 Jul -0.4 21:56:58 10° WNW 21:59:16 18° NNW 22:01:34 10° NNE visible
31 Jul -0.4 23:34:32 10° NNW 23:36:38 16° N 23:36:40 16° N visible
01 Aug -0.8 21:03:27 10° WNW 21:06:05 22° NNW 21:08:44 10° NE visible
01 Aug -0.3 22:41:27 10° NW 22:43:24 15° N 22:45:20 10° NE visible
02 Aug 0.1 00:17:49 10° NW 00:17:58 11° NW 00:17:58 11° NW visible
02 Aug -0.4 21:48:10 10° NW 21:50:09 15° N 21:52:09 10° NNE visible
02 Aug -0.5 23:25:01 10° NW 23:26:41 18° N 23:26:41 18° N visible
03 Aug -0.5 20:54:42 10° NW 20:56:55 17° N 20:59:08 10° NNE visible
03 Aug -0.7 22:32:07 10° NNW 22:34:18 16° N 22:35:26 14° NE visible
04 Aug -0.5 21:39:05 10° NNW 21:41:03 15° N 21:43:01 10° NE visible
04 Aug -0.6 23:15:21 10° NW 23:16:46 20° NNW 23:16:46 20° NNW visible
05 Aug -0.5 20:45:50 10° NW 20:47:48 15° N 20:49:45 10° NE visible
05 Aug -1.2 22:22:32 10° NW 22:25:07 21° NNE 22:25:32 21° NNE visible
06 Aug -0.8 21:29:40 10° NNW 21:31:55 17° NNE 21:34:11 10° NE visible
06 Aug -0.7 23:05:42 10° NW 23:06:56 20° NW 23:06:56 20° NW visible
07 Aug -0.6 20:36:40 10° NNW 20:38:41 15° N 20:40:42 10° NE visible
07 Aug -1.9 22:12:51 10° NW 22:15:44 32° NNE 22:15:44 32° NNE visible
08 Aug -1.4 21:20:02 10° NW 21:22:43 23° NNE 21:24:35 15° ENE visible
08 Aug -0.6 22:56:10 10° WNW 22:57:11 18° WNW 22:57:11 18° WNW visible
